Вернуться в каталог

COSMOS 2251 DEB

АктивенLEO
NORAD 35830·DEBRIS·🇷🇺 Russia

Запущен Jun 16, 1993 с Plesetsk Cosmodrome

Loading…

Ближайшие Пролёты (ближайшие 24 часа)

TLE

СвежийSource: Space-Track

Эпоха: Sep 14, 2026, 08:05 UTC

1 35830U 93036ATC 26257.33713866  .00002084  00000-0  81821-3 0  9996
2 35830  73.8597 123.8924 0121019  39.2650 321.7195 14.26031079651900

Отслеживайте COSMOS 2251 DEB в реальном времени с AllMySat

Download on the App Store